Regional Weather Roundup
Issued by NWS

Home | Current Version | Previous Version | Text Only | Print | Product List | Glossary Off
Versions: 1 2 3 4 5 6 7 8 9 10 11 12 13 14 15 16 17 18 19 20 21 22 23 24 25 26 27 28 29 30 31 32 33 34 35 36 37 38 39 40 41 42 43 44 45 46 47 48 49 50

632
ASUS44 KJAN 200510
RWRMS

MISSISSIPPI HOURLY WEATHER ROUNDUP
NATIONAL WEATHER SERVICE JACKSON MS
1100 PM CST FRI DEC 19 2014

NOTE: "FAIR: INDICATES FEW OR NO CLOUDS BELOW 12,000 FEET WITH NO
SIGNIFICANT WEATHER AND/OR OBSTRUCTIONS TO VISIBILITY.

MSZ001>002-007>008-010>013-018>021-025>028-034>036-200600-
NORTHWEST MISSISSIPPI

CITY           SKY/WX    TMP DP  RH WIND       PRES   REMARKS
CLARKSDALE     CLOUDY    41  39  93 NE6       30.25R
CLEVELAND      CLOUDY    43  40  89 NE7       30.22S
GREENWOOD      CLOUDY    44  42  93 NE7       30.21S
GREENVILLE     CLOUDY    45  40  82 N7        30.22R
GRENADA        CLOUDY    41  37  87 CALM      30.23R
OLIVE BRANCH   CLOUDY    37  37 100 NE5       30.23F WCI  34
OXFORD         MOCLDY    37  34  87 CALM      30.23F
TUNICA         MOCLDY    39  36  87 NE3       30.25S
$$

MSZ003>006-009-014>017-022>024-029>033-037>039-200600-
NORTHEAST MISSISSIPPI

CITY           SKY/WX    TMP DP  RH WIND       PRES   REMARKS
COLUMBUS AFB   CLOUDY    41  39  93 N6        30.21F
CORINTH        CLOUDY    39  34  81 CALM      30.21F
GOLDN TRIANGLE CLOUDY    43  39  87 NE5       30.20S
STARKVILLE     CLOUDY    41  41 100 NE5       30.21R FOG
TUPELO         CLOUDY    40  35  83 NE6       30.22R
$$

MSZ040-058-200600-
CENTRAL MISSISSIPPI

CITY           SKY/WX    TMP DP  RH WIND       PRES   REMARKS
JACKSON INTL   CLOUDY    46  43  89 N8        30.17F
JACKSON HAWKNS CLOUDY    45  42  89 NE6       30.17S
MERIDIAN KEY   CLOUDY    44  42  93 N8        30.16S
MERIDIAN NAS   LGT RAIN  43  41  93 N7        30.19R
RAYMOND        CLOUDY    45  41  87 CALM      30.18F
VICKSBURG      CLOUDY    46  44  93 E7        30.19F
$$

MSZ059>079-200600-
SOUTH MISSISSIPPI

CITY           SKY/WX    TMP DP  RH WIND       PRES   REMARKS
HATTIESBURG    LGT RAIN  47  45  93 E6        30.13F
MCCOMB         LGT RAIN  47  44  90 N8        30.13R
NATCHEZ        CLOUDY    46  43  87 N8G16     30.16F
PINE BELT      CLOUDY    46  43  87 NE5       30.14R
$$

MSZ080>082-200600-
COASTAL MISSISSIPPI

CITY           SKY/WX    TMP DP  RH WIND       PRES   REMARKS
BILOXI         LGT RAIN  46  46 100 NE12      30.10S
PASCAGOULA     LGT RAIN  48  46  93 N8        30.11S
GULFPORT       LGT RAIN  47  45  93 NE12      30.09F
$$



USA.gov is the U.S. government's official web portal to all federal, state and local government web resources and services.